| time (UTC) | temp F | wind direction | speed MPH | gust MPH | rain 1hr in | rain 24hr in | rain mn in | humidity % | barometer mb |
| 20260901095256 | 48 | 285 | 0.0 | 1.0 | 0.00 | 0.00 | 0.00 | 67 | 1014.6 |
| 20260901093757 | 48 | 285 | 0.0 | 1.0 | 0.00 | 0.00 | 0.00 | 66 | 1014.7 |
| 20260901092301 | 48 | 285 | 0.0 | 1.0 | 0.00 | 0.00 | 0.00 | 65 | 1014.6 |
| 20260901090744 | 47 | 285 | 0.0 | 1.0 | 0.00 | 0.00 | 0.00 | 67 | 1014.5 |
| 20260901085249 | 48 | 285 | 0.0 | 2.0 | 0.00 | 0.00 | 0.00 | 64 | 1014.6 |
| 20260901083812 | 49 | 285 | 0.0 | 3.0 | 0.00 | 0.00 | 0.00 | 64 | 1014.7 |
| 20260901082250 | 48 | 285 | 0.0 | 3.0 | 0.00 | 0.00 | 0.00 | 65 | 1014.7 |
| 20260901080813 | 47 | 285 | 0.0 | 0.0 | 0.00 | 0.00 | 0.00 | 66 | 1015.0 |
| 20260901075257 | 46 | 285 | 0.0 | 0.0 | 0.00 | 0.00 | 0.00 | 67 | 1014.9 |
| 20260901073757 | 47 | 285 | 0.0 | 0.0 | 0.00 | 0.00 | 0.00 | 68 | 1014.7 |
| 20260901072244 | 47 | 285 | 1.0 | 1.0 | 0.00 | 0.00 | 0.00 | 67 | 1014.8 |
| 20260901070744 | 48 | 285 | 0.0 | 2.0 | 0.00 | 0.00 | 0.00 | 66 | 1014.5 |
| 20260901065244 | 48 | 285 | 0.0 | 0.0 | 0.00 | 0.00 | 0.00 | 66 | 1014.8 |
| 20260901063751 | 49 | 285 | 0.0 | 0.0 | 0.00 | 0.00 | 0.00 | 62 | 1014.5 |
| 20260901062253 | 49 | 285 | 0.0 | 0.0 | 0.00 | 0.00 | 0.00 | 62 | 1014.4 |
| 20260901060752 | 50 | 285 | 0.0 | 0.0 | 0.00 | 0.00 | 0.00 | 61 | 1014.0 |
| 20260901055256 | 50 | 285 | 0.0 | 1.0 | 0.00 | 0.00 | 0.00 | 60 | 1014.0 |
| 20260901053757 | 51 | 285 | 0.0 | 2.0 | 0.00 | 0.00 | 0.00 | 59 | 1013.8 |
| 20260901052243 | 52 | 285 | 0.0 | 0.0 | 0.00 | 0.00 | 0.00 | 58 | 1014.0 |
| 20260901050744 | 53 | 285 | 0.0 | 0.0 | 0.00 | 0.00 | 0.00 | 57 | 1013.7 |
| 20260901045245 | 54 | 285 | 0.0 | 0.0 | 0.00 | 0.00 | 0.00 | 55 | 1013.8 |
| 20260901043814 | 56 | 285 | 0.0 | 0.0 | 0.00 | 0.00 | 0.00 | 52 | 1013.8 |
| 20260901042253 | 56 | 285 | 0.0 | 0.0 | 0.00 | 0.00 | 0.00 | 51 | 1013.8 |
| 20260901040755 | 56 | 285 | 0.0 | 2.0 | 0.00 | 0.00 | 0.00 | 52 | 1013.8 |
| 20260901035300 | 57 | 285 | 0.0 | 3.0 | 0.00 | 0.00 | 0.00 | 50 | 1013.7 |
| 20260901033742 | 59 | 285 | 0.0 | 1.0 | 0.00 | 0.00 | 0.00 | 48 | 1013.6 |
| 20260901032246 | 60 | 285 | 0.0 | 1.0 | 0.00 | 0.00 | 0.00 | 47 | 1013.3 |
| 20260901030810 | 60 | 285 | 0.0 | 1.0 | 0.00 | 0.00 | 0.00 | 47 | 1013.3 |
| 20260901025313 | 62 | 285 | 0.0 | 1.0 | 0.00 | 0.00 | 0.00 | 45 | 1013.3 |
| 20260901023754 | 64 | 285 | 0.0 | 2.0 | 0.00 | 0.00 | 0.00 | 43 | 1013.0 |
| 20260901022300 | 65 | 285 | 1.0 | 2.0 | 0.00 | 0.00 | 0.00 | 42 | 1013.0 |
| 20260901020741 | 69 | 285 | 3.0 | 5.0 | 0.00 | 0.00 | 0.00 | 38 | 1013.0 |
| 20260901015250 | 71 | 288 | 4.0 | 6.0 | 0.00 | 0.00 | 0.00 | 36 | 1012.7 |
| 20260901013752 | 73 | 281 | 6.0 | 13.0 | 0.00 | 0.00 | 0.00 | 35 | 1012.6 |
| 20260901012314 | 74 | 281 | 10.0 | 11.0 | 0.00 | 0.00 | 0.00 | 34 | 1012.4 |
| 20260901010800 | 76 | 280 | 13.0 | 15.0 | 0.00 | 0.00 | 0.00 | 33 | 1012.2 |
| 20260901005302 | 76 | 283 | 14.0 | 21.0 | 0.00 | 0.00 | 0.00 | 32 | 1012.2 |
| 20260901003741 | 77 | 285 | 15.0 | 17.0 | 0.00 | 0.00 | 0.00 | 32 | 1012.1 |
| 20260901002249 | 77 | 279 | 16.0 | 22.0 | 0.00 | 0.00 | 0.00 | 32 | 1012.1 |
| 20260901000750 | 78 | 290 | 14.0 | 24.0 | 0.00 | 0.00 | 0.00 | 31 | 1011.9 |
| 20260831235255 | 78 | 257 | 24.0 | 24.0 | 0.00 | 0.00 | 0.00 | 32 | 1012.0 |
| 20260831233756 | 78 | 288 | 14.0 | 28.0 | 0.00 | 0.00 | 0.00 | 32 | 1011.9 |
| 20260831232257 | 78 | 274 | 19.0 | 24.0 | 0.00 | 0.00 | 0.00 | 32 | 1012.0 |
| 20260831230745 | 78 | 263 | 23.0 | 23.0 | 0.00 | 0.00 | 0.00 | 32 | 1011.9 |
| 20260831225246 | 78 | 272 | 18.0 | 28.0 | 0.00 | 0.00 | 0.00 | 31 | 1012.0 |
| 20260831223807 | 78 | 273 | 20.0 | 25.0 | 0.00 | 0.00 | 0.00 | 31 | 1012.1 |
| 20260831222250 | 79 | 277 | 19.0 | 27.0 | 0.00 | 0.00 | 0.00 | 31 | 1012.1 |
| 20260831220752 | 78 | 291 | 22.0 | 29.0 | 0.00 | 0.00 | 0.00 | 31 | 1011.9 |
| 20260831215314 | 78 | 242 | 17.0 | 28.0 | 0.00 | 0.00 | 0.00 | 32 | 1011.7 |
| 20260831213740 | 78 | 298 | 19.0 | 32.0 | 0.00 | 0.00 | 0.00 | 31 | 1011.9 |
| 20260831212243 | 78 | 281 | 24.0 | 31.0 | 0.00 | 0.00 | 0.00 | 32 | 1011.9 |
| 20260831210752 | 78 | 298 | 27.0 | 30.0 | 0.00 | 0.00 | 0.00 | 31 | 1011.8 |
| 20260831205252 | 78 | 273 | 14.0 | 24.0 | 0.00 | 0.00 | 0.00 | 32 | 1012.0 |
| 20260831203752 | 77 | 264 | 14.0 | 30.0 | 0.00 | 0.00 | 0.00 | 34 | 1012.1 |
| 20260831202257 | 76 | 271 | 28.0 | 29.0 | 0.00 | 0.00 | 0.00 | 35 | 1011.9 |
| 20260831200818 | 77 | 268 | 19.0 | 30.0 | 0.00 | 0.00 | 0.00 | 35 | 1011.1 |
| 20260831195319 | 76 | 274 | 18.0 | 32.0 | 0.00 | 0.00 | 0.00 | 36 | 1011.1 |
| 20260831193741 | 76 | 283 | 30.0 | 30.0 | 0.00 | 0.00 | 0.00 | 35 | 1011.0 |
| 20260831192242 | 76 | 267 | 30.0 | 31.0 | 0.00 | 0.00 | 0.00 | 36 | 1011.1 |
| 20260831190749 | 75 | 270 | 18.0 | 32.0 | 0.00 | 0.00 | 0.00 | 36 | 1011.1 |
| 20260831185254 | 76 | 287 | 21.0 | 30.0 | 0.00 | 0.00 | 0.00 | 36 | 1011.1 |
| 20260831183757 | 75 | 287 | 31.0 | 34.0 | 0.00 | 0.00 | 0.00 | 37 | 1010.9 |
| 20260831182300 | 74 | 275 | 22.0 | 31.0 | 0.00 | 0.00 | 0.00 | 37 | 1010.9 |
| 20260831180742 | 74 | 284 | 25.0 | 30.0 | 0.00 | 0.00 | 0.00 | 40 | 1010.9 |
| 20260831175249 | 74 | 243 | 23.0 | 30.0 | 0.00 | 0.00 | 0.00 | 40 | 1010.8 |
| 20260831173749 | 73 | 234 | 21.0 | 32.0 | 0.00 | 0.00 | 0.00 | 41 | 1010.9 |
| 20260831172249 | 72 | 281 | 28.0 | 32.0 | 0.00 | 0.00 | 0.00 | 42 | 1010.9 |
| 20260831170754 | 71 | 246 | 20.0 | 30.0 | 0.00 | 0.00 | 0.00 | 43 | 1010.9 |
| 20260831165315 | 71 | 252 | 26.0 | 29.0 | 0.00 | 0.00 | 0.00 | 43 | 1010.7 |
| 20260831163755 | 70 | 269 | 25.0 | 32.0 | 0.00 | 0.00 | 0.00 | 44 | 1010.4 |
| 20260831162241 | 70 | 264 | 26.0 | 30.0 | 0.00 | 0.00 | 0.00 | 44 | 1010.3 |
| 20260831160801 | 69 | 269 | 25.0 | 29.0 | 0.00 | 0.00 | 0.00 | 45 | 1010.1 |
| 20260831155246 | 68 | 258 | 19.0 | 29.0 | 0.00 | 0.00 | 0.00 | 46 | 1010.3 |
| 20260831153749 | 67 | 246 | 26.0 | 28.0 | 0.00 | 0.00 | 0.00 | 47 | 1010.1 |
| 20260831152249 | 66 | 230 | 18.0 | 29.0 | 0.00 | 0.00 | 0.00 | 47 | 1010.0 |
| 20260831150753 | 64 | 250 | 14.0 | 24.0 | 0.00 | 0.00 | 0.00 | 48 | 1010.0 |
| 20260831145316 | 62 | 241 | 14.0 | 24.0 | 0.00 | 0.00 | 0.00 | 49 | 1009.7 |
| 20260831143755 | 61 | 261 | 13.0 | 29.0 | 0.00 | 0.01 | 0.00 | 48 | 1009.5 |
| 20260831142239 | 61 | 246 | 14.0 | 24.0 | 0.00 | 0.01 | 0.00 | 49 | 1009.4 |
| 20260831140744 | 61 | 240 | 15.0 | 28.0 | 0.00 | 0.01 | 0.00 | 48 | 1009.2 |
| 20260831135250 | 59 | 224 | 14.0 | 22.0 | 0.00 | 0.01 | 0.00 | 50 | 1009.1 |
| 20260831133751 | 59 | 227 | 19.0 | 19.0 | 0.00 | 0.01 | 0.00 | 50 | 1008.9 |
| 20260831132254 | 58 | 227 | 9.0 | 18.0 | 0.00 | 0.01 | 0.00 | 51 | 1008.8 |
| 20260831130740 | 57 | 200 | 9.0 | 17.0 | 0.00 | 0.01 | 0.00 | 52 | 1008.9 |
| 20260831125300 | 57 | 207 | 13.0 | 20.0 | 0.00 | 0.01 | 0.00 | 52 | 1008.7 |
| 20260831123800 | 57 | 194 | 12.0 | 18.0 | 0.00 | 0.02 | 0.00 | 53 | 1008.6 |
| 20260831122246 | 56 | 223 | 13.0 | 18.0 | 0.00 | 0.02 | 0.00 | 54 | 1008.6 |
| 20260831120748 | 57 | 205 | 15.0 | 20.0 | 0.00 | 0.02 | 0.00 | 54 | 1008.3 |
| 20260831115313 | 58 | 204 | 9.0 | 18.0 | 0.00 | 0.02 | 0.00 | 52 | 1008.5 |
| 20260831113752 | 59 | 218 | 6.0 | 17.0 | 0.00 | 0.03 | 0.00 | 51 | 1008.3 |
| 20260831112258 | 58 | 207 | 7.0 | 15.0 | 0.00 | 0.03 | 0.00 | 53 | 1008.3 |
| 20260831110743 | 58 | 229 | 13.0 | 17.0 | 0.00 | 0.03 | 0.00 | 53 | 1008.3 |
| 20260831105249 | 58 | 258 | 9.0 | 15.0 | 0.00 | 0.03 | 0.00 | 53 | 1008.4 |
| 20260831103753 | 58 | 205 | 16.0 | 17.0 | 0.00 | 0.03 | 0.00 | 53 | 1008.4 |
| 20260831102252 | 57 | 224 | 12.0 | 20.0 | 0.00 | 0.03 | 0.00 | 53 | 1008.4 |
| 20260831100755 | 57 | 217 | 9.0 | 18.0 | 0.00 | 0.03 | 0.00 | 53 | 1008.5 |